This demonstration page uses our WeatherBlox Daily Observations layout. Learn more.

Left ArrowRight Arrow

39.01783, -85.05884

Hourly Observations for June 15, 2021

Temp ( °F °C ) Dew Point ( °F °C ) Humidity (%) Winds ( mph kmh ) Pressure ( in mb ) Visibility ( mi km ) Precip ( " mm )
12:52 am 00:52 Clear 69 20.6 51 10.6 53 53 NNW 9 15 29.93 1013 10 16 N/A
1:52 am 01:52 Clear 66 18.9 52 11.1 61 61 N 9 15 29.95 1014 10 16 N/A
2:52 am 02:52 Clear 64 17.8 52 11.1 65 65 N 8 13 29.95 1014 10 16 N/A
3:52 am 03:52 Clear 63 17.2 52 11.1 68 68 N 7 11 29.95 1014 10 16 N/A
4:52 am 04:52 Clear 61 16.1 52 11.1 72 72 NW 6 9 29.96 1015 10 16 N/A
5:52 am 05:52 Clear 61 16.1 52 11.1 72 72 NNW 6 9 29.96 1015 10 16 N/A
6:52 am 06:52 Sunny 61 16.1 52 11.1 72 72 NW 3 6 29.98 1015 10 16 N/A
7:52 am 07:52 Sunny 64 17.8 53 11.7 68 68 NNW 6 9 29.99 1016 10 16 N/A
8:52 am 08:52 Sunny 67 19.4 54 12.2 63 63 N 7 11 30.00 1016 10 16 N/A
9:52 am 09:52 Sunny 71 21.7 55 12.8 57 57 N 7 11 30.01 1016 10 16 N/A
10:52 am 10:52 Mostly Sunny 73 22.8 54 12.2 51 51 N 9 15 30.01 1016 10 16 N/A
11:52 am 11:52 Partly Cloudy 77 25 54 12.2 45 45 N 8 13 30.01 1016 10 16 N/A
12:52 pm 12:52 Partly Cloudy 79 26.1 53 11.7 41 41 NNW 10 17 30.00 1016 10 16 N/A
1:52 pm 13:52 Mostly Cloudy 79 26.1 53 11.7 41 41 NNW 14 22 30.00 1016 10 16 N/A
2:52 pm 14:52 Mostly Cloudy 77 25 51 10.6 40 40 NNW 15 24 29.99 1016 10 16 N/A
3:52 pm 15:52 Partly Cloudy 81 27.2 51 10.6 35 35 NNE 13 20 29.98 1015 10 16 N/A
4:52 pm 16:52 Partly Cloudy 80 26.7 50 10 35 35 N 8 13 29.98 1015 10 16 N/A
6:52 pm 18:52 Partly Cloudy 79 26.1 49 9.4 35 35 NNW 10 17 29.97 1015 10 16 N/A
7:52 pm 19:52 Partly Cloudy 78 25.6 51 10.6 39 39 N 8 13 29.96 1015 10 16 N/A
8:52 pm 20:52 Mostly Sunny 75 23.9 51 10.6 43 43 NW 6 9 29.96 1015 10 16 N/A
9:52 pm 21:52 Mostly Clear 72 22.2 51 10.6 48 48 NW 6 9 29.97 1015 10 16 N/A
10:52 pm 22:52 Mostly Clear 70 21.1 51 10.6 51 51 NNE 6 9 29.98 1015 10 16 N/A
11:52 pm 23:52 Mostly Clear 67 19.4 53 11.7 61 61 NW 3 6 29.98 1015 10 16 N/A

Powered by AerisWeather